{"data":{"norad_id":67737,"intl_designator":"2026-026S","name":"STARLINK-36330","alt_names":[],"object_type":"PAYLOAD","status":"ACTIVE","operator":null,"country":"US","launch_date":"2026-02-11","launch_site_code":"AFWTR","launch_vehicle":null,"mission":null,"orbit_class":"UNKNOWN","rcs_meters":null,"size_class":null,"mass_kg":null,"dimensions":null,"purposes":["comms"],"wikipedia_slug":null,"has_3d_model":false,"image_url":null,"decayed_at":null,"tle_current":{"epoch":"2026-05-25T03:14:06.773568Z","epoch_age_seconds":53588,"freshness":"FRESH","line1":"1 67737U 26026S   26145.13480062  .00013890  00000+0  43165-3 0  9990","line2":"2 67737  97.2853 198.6962 0000970 102.3881 257.7470 15.33454996 15845","mean_motion":15.33454996,"eccentricity":9.7e-5,"inclination_deg":97.2853,"raan_deg":198.6962,"arg_perigee_deg":102.3881,"mean_anomaly_deg":257.747,"bstar":0.00043165,"rev_number":1584,"period_min":93.905592518608,"perigee_km":464.84959948442,"apogee_km":466.17726766853,"semimajor_km":6843.6504335765,"source":"CELESTRAK","updated_at":"2026-05-25T13:38:21.689900Z"}}}